Location: Township of South Roscoe
(37.9570°N, 100.1180°W)
Time: 01:48:58
(UTC+00:00)

NOAA 15 - Pass Details

Date: 09 July 2022
Orbit: 796 x 813 km, 98.6° (Epoch: 17 August)

Event Time Altitude Azimuth Distance (km) Brightness Sun altitude
Rises 02:25:37 0° 192° (SSW) 3,315 7.6 -4.2°
Reaches altitude 10° 02:28:12 10° 203° (SSW) 2,390 7.0 -4.7°
Maximum altitude 02:32:49 30° 264° (W) 1,417 6.5 -5.4°
Drops below altitude 10° 02:37:28 10° 325° (NW) 2,407 8.5 -6.2°
Sets 02:40:06 0° 335° (NNW) 3,342 9.0 -6.6°
